| time (UTC) | temp C | wind direction | speed KPH | gust KPH | rain 1hr cm | rain 24hr cm | rain mn cm | humidity % | barometer mb |
| 20260906231613 | 33 | 130 | 0.0 | 1.6 | 0.00 | 0.10 | 0.08 | 49 | 1009.4 |
| 20260906224607 | 34 | 108 | 0.0 | 3.2 | 0.00 | 0.10 | 0.08 | 49 | 1009.6 |
| 20260906223107 | 34 | 140 | 0.0 | 1.6 | 0.00 | 0.10 | 0.08 | 49 | 1009.5 |
| 20260906221606 | 34 | 117 | 0.0 | 6.4 | 0.00 | 0.10 | 0.08 | 48 | 1009.6 |
| 20260906220057 | 35 | 123 | 0.0 | 1.6 | 0.00 | 0.10 | 0.08 | 47 | 1009.6 |
| 20260906214555 | 35 | 300 | 0.0 | 11.3 | 0.00 | 0.10 | 0.08 | 48 | 1009.6 |
| 20260906213053 | 35 | 213 | 0.0 | 6.4 | 0.00 | 0.10 | 0.08 | 48 | 1009.8 |
| 20260906211551 | 35 | 131 | 0.0 | 11.3 | 0.00 | 0.10 | 0.08 | 47 | 1010.0 |
| 20260906210107 | 35 | 190 | 0.0 | 3.2 | 0.00 | 0.10 | 0.08 | 48 | 1010.1 |
| 20260906204547 | 35 | 148 | 0.0 | 16.1 | 0.00 | 0.10 | 0.08 | 48 | 1010.3 |
| 20260906203044 | 35 | 98 | 0.0 | 11.3 | 0.00 | 0.10 | 0.08 | 48 | 1010.7 |
| 20260906201606 | 34 | 103 | 0.0 | 6.4 | 0.00 | 0.10 | 0.08 | 51 | 1010.8 |
| 20260906200042 | 33 | 102 | 0.0 | 1.6 | 0.00 | 0.10 | 0.08 | 53 | 1010.9 |
| 20260906194543 | 33 | 127 | 0.0 | 1.6 | 0.00 | 0.10 | 0.08 | 52 | 1011.0 |
| 20260906193040 | 33 | 122 | 0.0 | 1.6 | 0.00 | 0.10 | 0.08 | 51 | 1011.1 |
| 20260906191553 | 34 | 112 | 0.0 | 14.5 | 0.00 | 0.10 | 0.08 | 51 | 1011.2 |
| 20260906190039 | 34 | 134 | 0.0 | 8.0 | 0.00 | 0.10 | 0.08 | 51 | 1011.4 |
| 20260906184545 | 34 | 122 | 0.0 | 16.1 | 0.00 | 0.10 | 0.08 | 53 | 1011.4 |
| 20260906183041 | 34 | 101 | 0.0 | 1.6 | 0.00 | 0.10 | 0.08 | 55 | 1011.7 |
| 20260906181552 | 33 | 126 | 0.0 | 3.2 | 0.00 | 0.10 | 0.08 | 55 | 1011.8 |
| 20260906180031 | 33 | 115 | 0.0 | 1.6 | 0.00 | 0.10 | 0.08 | 54 | 1011.9 |
| 20260906174529 | 32 | 122 | 0.0 | 1.6 | 0.00 | 0.10 | 0.08 | 58 | 1012.2 |
| 20260906173030 | 33 | 110 | 0.0 | 1.6 | 0.00 | 0.10 | 0.08 | 57 | 1012.3 |
| 20260906171534 | 33 | 129 | 0.0 | 0.0 | 0.00 | 0.10 | 0.08 | 58 | 1012.6 |
| 20260906170027 | 33 | 43 | 0.0 | 1.6 | 0.00 | 0.10 | 0.08 | 62 | 1012.7 |
| 20260906164525 | 33 | 86 | 0.0 | 3.2 | 0.00 | 0.10 | 0.08 | 62 | 1012.8 |
| 20260906163026 | 32 | 5 | 0.0 | 0.0 | 0.00 | 0.10 | 0.08 | 67 | 1013.0 |
| 20260906161520 | 32 | 265 | 0.0 | 0.0 | 0.00 | 0.10 | 0.08 | 68 | 1013.0 |
| 20260906160015 | 31 | 68 | 0.0 | 0.0 | 0.00 | 0.10 | 0.08 | 66 | 1013.1 |
| 20260906154513 | 31 | 307 | 0.0 | 0.0 | 0.00 | 0.10 | 0.08 | 70 | 1013.1 |
| 20260906153010 | 31 | 92 | 0.0 | 0.0 | 0.00 | 0.10 | 0.08 | 68 | 1013.0 |
| 20260906151508 | 30 | 119 | 0.0 | 0.0 | 0.00 | 0.10 | 0.08 | 71 | 1012.9 |
| 20260906150003 | 29 | 137 | 0.0 | 0.0 | 0.00 | 0.10 | 0.08 | 72 | 1013.0 |
| 20260906144559 | 28 | 138 | 0.0 | 0.0 | 0.00 | 0.13 | 0.08 | 74 | 1013.2 |
| 20260906143056 | 27 | 141 | 0.0 | 0.0 | 0.00 | 0.13 | 0.08 | 74 | 1013.1 |
| 20260906141559 | 27 | 141 | 0.0 | 0.0 | 0.00 | 0.13 | 0.08 | 76 | 1013.2 |
| 20260906140103 | 26 | 141 | 0.0 | 0.0 | 0.03 | 0.13 | 0.08 | 78 | 1013.1 |
| 20260906134603 | 25 | 141 | 0.0 | 0.0 | 0.03 | 0.13 | 0.08 | 80 | 1012.9 |
| 20260906133051 | 24 | 141 | 0.0 | 0.0 | 0.03 | 0.13 | 0.08 | 78 | 1012.8 |
| 20260906131548 | 23 | 141 | 0.0 | 0.0 | 0.03 | 0.13 | 0.08 | 78 | 1012.9 |
| 20260906130055 | 23 | 141 | 0.0 | 0.0 | 0.00 | 0.10 | 0.05 | 78 | 1012.6 |
| 20260906124542 | -17 | 0.0 | 0.0 | 0.00 | 0.10 | 0.05 | 1012.4 | ||
| 20260906123037 | -17 | 0.0 | 0.0 | 0.00 | 0.10 | 0.05 | 1012.2 | ||
| 20260906121533 | -17 | 0.0 | 0.0 | 0.00 | 0.10 | 0.05 | 1011.9 | ||
| 20260906120028 | -17 | 0.0 | 0.0 | 0.03 | 0.10 | 0.05 | 1011.8 | ||
| 20260906114536 | 23 | 141 | 0.0 | 0.0 | 0.03 | 0.10 | 0.05 | 75 | 1011.6 |
| 20260906113026 | 23 | 141 | 0.0 | 0.0 | 0.03 | 0.10 | 0.05 | 75 | 1011.6 |
| 20260906111528 | 23 | 141 | 0.0 | 0.0 | 0.03 | 0.10 | 0.05 | 75 | 1011.2 |
| 20260906110022 | 23 | 141 | 0.0 | 0.0 | 0.00 | 0.08 | 0.03 | 75 | 1011.1 |
| 20260906104521 | 23 | 141 | 0.0 | 0.0 | 0.00 | 0.08 | 0.03 | 75 | 1011.0 |
| 20260906103020 | 23 | 141 | 0.0 | 0.0 | 0.00 | 0.08 | 0.03 | 74 | 1010.9 |
| 20260906101521 | 23 | 141 | 0.0 | 0.0 | 0.00 | 0.08 | 0.03 | 74 | 1011.0 |
| 20260906100018 | 23 | 141 | 0.0 | 0.0 | 0.00 | 0.08 | 0.03 | 74 | 1010.8 |
| 20260906094516 | 23 | 141 | 0.0 | 0.0 | 0.00 | 0.08 | 0.03 | 74 | 1010.9 |
| 20260906093016 | 23 | 141 | 0.0 | 0.0 | 0.00 | 0.08 | 0.03 | 73 | 1010.9 |
| 20260906091518 | 24 | 141 | 0.0 | 0.0 | 0.03 | 0.08 | 0.03 | 72 | 1010.8 |
| 20260906090013 | 25 | 141 | 0.0 | 0.0 | 0.03 | 0.08 | 0.03 | 72 | 1010.8 |
| 20260906084509 | 25 | 141 | 0.0 | 0.0 | 0.03 | 0.08 | 0.03 | 71 | 1010.6 |
| 20260906083011 | 25 | 141 | 0.0 | 0.0 | 0.03 | 0.08 | 0.03 | 71 | 1010.7 |
| 20260906081507 | 25 | 141 | 0.0 | 0.0 | 0.00 | 0.05 | 0.00 | 70 | 1010.8 |
| 20260906080008 | 25 | 141 | 0.0 | 0.0 | 0.00 | 0.05 | 0.00 | 70 | 1010.9 |
| 20260906074504 | 25 | 141 | 0.0 | 0.0 | 0.00 | 0.05 | 0.00 | 70 | 1011.1 |
| 20260906073004 | 26 | 141 | 0.0 | 0.0 | 0.00 | 0.05 | 0.00 | 70 | 1011.0 |
| 20260906071611 | 26 | 141 | 0.0 | 0.0 | 0.00 | 0.05 | 0.00 | 70 | 1011.3 |
| 20260906070058 | 26 | 141 | 0.0 | 0.0 | 0.00 | 0.05 | 0.00 | 68 | 1011.3 |
| 20260906064555 | 26 | 141 | 0.0 | 0.0 | 0.00 | 0.05 | 0.00 | 67 | 1011.3 |
| 20260906063054 | 26 | 141 | 0.0 | 0.0 | 0.00 | 0.05 | 0.00 | 67 | 1011.5 |
| 20260906061553 | 26 | 141 | 0.0 | 0.0 | 0.00 | 0.05 | 0.00 | 66 | 1011.5 |
| 20260906060123 | 26 | 141 | 0.0 | 0.0 | 0.00 | 0.05 | 0.00 | 66 | 1011.7 |
| 20260906054549 | 27 | 141 | 0.0 | 0.0 | 0.00 | 0.05 | 0.00 | 66 | 1011.7 |
| 20260906053047 | 27 | 141 | 0.0 | 0.0 | 0.00 | 0.05 | 0.00 | 66 | 1011.6 |
| 20260906051545 | 27 | 141 | 0.0 | 0.0 | 0.00 | 0.05 | 0.00 | 65 | 1011.9 |
| 20260906050043 | 27 | 141 | 0.0 | 0.0 | 0.00 | 0.05 | 0.00 | 64 | 1011.9 |
| 20260906044543 | 28 | 141 | 0.0 | 0.0 | 0.03 | 0.08 | 0.05 | 63 | 1011.8 |
| 20260906043041 | 28 | 141 | 0.0 | 0.0 | 0.03 | 0.08 | 0.05 | 64 | 1011.8 |
| 20260906041541 | 28 | 141 | 0.0 | 0.0 | 0.03 | 0.08 | 0.05 | 64 | 1011.7 |
| 20260906040041 | 28 | 129 | 0.0 | 1.6 | 0.03 | 0.08 | 0.05 | 63 | 1011.6 |
| 20260906034541 | 29 | 120 | 0.0 | 1.6 | 0.00 | 0.05 | 0.03 | 62 | 1011.7 |
| 20260906033040 | 29 | 133 | 0.0 | 1.6 | 0.00 | 0.05 | 0.03 | 62 | 1011.4 |
| 20260906031605 | 30 | 108 | 0.0 | 0.0 | 0.00 | 0.05 | 0.03 | 62 | 1011.4 |
| 20260906030039 | 30 | 136 | 0.0 | 12.9 | 0.00 | 0.05 | 0.03 | 61 | 1011.3 |
| 20260906024542 | 30 | 107 | 0.0 | 12.9 | 0.00 | 0.05 | 0.03 | 62 | 1011.2 |
| 20260906023043 | 30 | 98 | 0.0 | 11.3 | 0.00 | 0.05 | 0.03 | 61 | 1011.0 |
| 20260906021535 | 31 | 109 | 0.0 | 4.8 | 0.00 | 0.05 | 0.03 | 59 | 1010.8 |
| 20260906020045 | 31 | 109 | 0.0 | 12.9 | 0.00 | 0.05 | 0.03 | 58 | 1010.5 |
| 20260906014535 | 31 | 111 | 0.0 | 1.6 | 0.00 | 0.05 | 0.03 | 53 | 1010.2 |
| 20260906013034 | 32 | 137 | 0.0 | 1.6 | 0.00 | 0.05 | 0.03 | 50 | 1009.9 |
| 20260906011534 | 32 | 127 | 0.0 | 0.0 | 0.00 | 0.05 | 0.03 | 47 | 1009.6 |
| 20260906010034 | 33 | 127 | 0.0 | 0.0 | 0.00 | 0.05 | 0.03 | 46 | 1009.4 |
| 20260906004534 | 33 | 144 | 0.0 | 1.6 | 0.00 | 0.05 | 0.03 | 46 | 1009.5 |
| 20260906003031 | 33 | 123 | 0.0 | 4.8 | 0.00 | 0.05 | 0.03 | 45 | 1009.4 |
| 20260906001540 | 34 | 107 | 0.0 | 1.6 | 0.00 | 0.05 | 0.03 | 45 | 1009.4 |
| 20260906000031 | 34 | 116 | 0.0 | 3.2 | 0.00 | 0.05 | 0.03 | 44 | 1009.3 |
| 20260905234532 | 34 | 125 | 1.6 | 16.1 | 0.00 | 0.05 | 0.03 | 44 | 1009.3 |
| 20260905233033 | 35 | 149 | 0.0 | 3.2 | 0.00 | 0.05 | 0.03 | 44 | 1009.3 |